KC2DUX Weather Reports


Display with metric or nautical units.
time (UTC)temp
F
wind
direction
speed
MPH
gust
MPH
rain 1hr
in
rain 24hr
in
rain mn
in
humidity
%
barometer
mb
20260905113002 69 344 0.0 14.0 0.00 0.42 0.42 93 1010.0
20260905112601 68 344 0.0 14.0 0.00 0.42 0.42 93 1010.0
20260905112102 68 9 0.0 1.0 0.00 0.42 0.42 93 1009.9
20260905112004 68 5 0.0 1.0 0.00 0.42 0.42 93 1009.8
20260905111627 68 5 0.0 2.0 0.00 0.42 0.42 93 1009.8
20260905111058 69 344 0.0 2.0 0.00 0.42 0.42 93 1009.8
20260905110558 69 13 0.0 3.0 0.00 0.42 0.42 93 1009.7
20260905110107 69 66 0.0 2.0 0.00 0.42 0.42 93 1009.6
20260905105600 69 40 0.0 2.0 0.00 0.42 0.42 93 1009.5
20260905105057 69 34 0.0 3.0 0.00 0.42 0.42 93 1009.4
20260905104616 69 22 0.0 2.0 0.00 0.42 0.42 93 1009.4
20260905104059 69 19 0.0 1.0 0.00 0.42 0.42 93 1009.3
20260905103555 69 19 0.0 1.0 0.00 0.42 0.42 93 1009.3
20260905103055 69 61 0.0 1.0 0.00 0.42 0.42 93 1009.3
20260905102554 70 5 0.0 3.0 0.00 0.42 0.42 93 1009.2
20260905102054 70 346 0.0 1.0 0.00 0.42 0.42 93 1009.1
20260905101555 70 22 0.0 0.0 0.00 0.42 0.42 93 1009.1
20260905101052 70 30 0.0 0.0 0.00 0.42 0.42 93 1009.1
20260905100553 70 22 0.0 0.0 0.00 0.42 0.42 94 1009.1
20260905100051 70 18 0.0 0.0 0.00 0.42 0.42 94 1009.0
20260905095550 71 14 0.0 0.0 0.00 0.42 0.42 94 1009.0
20260905095051 71 34 0.0 0.0 0.00 0.42 0.42 94 1009.1
20260905094655 71 37 0.0 2.0 0.00 0.42 0.42 94 1009.0
20260905094049 71 29 0.0 2.0 0.00 0.42 0.42 94 1009.0
20260905093549 71 26 0.0 3.0 0.00 0.42 0.42 94 1009.0
20260905093052 71 26 0.0 4.0 0.00 0.42 0.42 94 1009.0
20260905092550 71 35 0.0 4.0 0.00 0.42 0.42 94 1008.9
20260905092048 71 35 0.0 3.0 0.00 0.42 0.42 94 1008.9
20260905091552 71 38 0.0 1.0 0.00 0.42 0.42 94 1009.0
20260905091051 71 38 0.0 1.0 0.00 0.42 0.42 94 1009.0
20260905090547 71 5 0.0 1.0 0.00 0.42 0.42 94 1009.0
20260905090047 71 46 0.0 1.0 0.00 0.42 0.42 94 1009.1
20260905085547 71 57 0.0 1.0 0.00 0.42 0.42 93 1009.1
20260905085046 71 39 0.0 0.0 0.00 0.42 0.42 93 1009.0
20260905084558 71 39 0.0 0.0 0.00 0.42 0.42 93 1009.1
20260905084048 71 39 0.0 0.0 0.00 0.42 0.42 93 1009.1
20260905083545 71 39 0.0 0.0 0.00 0.42 0.42 93 1009.1
20260905083045 71 39 0.0 0.0 0.00 0.42 0.42 93 1009.0
20260905082545 71 39 0.0 0.0 0.00 0.42 0.42 93 1009.0
20260905082044 71 39 0.0 1.0 0.00 0.42 0.42 93 1009.0
20260905081543 71 39 0.0 1.0 0.00 0.42 0.42 93 1008.9
20260905081043 71 39 0.0 0.0 0.00 0.42 0.42 93 1009.0
20260905080543 71 39 0.0 0.0 0.00 0.42 0.42 93 1009.1
20260905080052 71 39 0.0 0.0 0.00 0.42 0.42 93 1009.1
20260905075542 71 39 0.0 0.0 0.00 0.80 0.42 93 1009.1
20260905075044 71 39 0.0 0.0 0.00 0.80 0.42 93 1009.1
20260905074550 71 27 0.0 0.0 0.00 0.80 0.42 93 1009.2
20260905074043 71 36 0.0 0.0 0.00 0.80 0.42 93 1009.1
20260905073541 71 48 0.0 0.0 0.00 0.80 0.42 93 1009.1
20260905073041 71 39 0.0 0.0 0.01 0.80 0.42 93 1009.1
20260905072540 71 39 0.0 0.0 0.02 0.80 0.42 93 1009.1
20260905072040 72 186 0.0 0.0 0.03 0.80 0.42 93 1009.0
20260905071546 72 186 0.0 1.0 0.04 0.80 0.42 93 1009.0
20260905071038 72 186 0.0 1.0 0.05 0.80 0.42 93 1009.0
20260905070538 72 186 0.0 1.0 0.06 0.80 0.42 93 1009.1
20260905070038 72 186 0.0 1.0 0.07 0.80 0.42 93 1009.1
20260905065538 72 186 0.0 1.0 0.09 0.81 0.42 93 1009.1
20260905065038 72 186 0.0 1.0 0.17 0.81 0.42 93 1009.2
20260905064535 72 186 0.0 1.0 0.24 0.81 0.42 93 1009.3
20260905064034 72 186 0.0 2.0 0.25 0.81 0.42 93 1009.4
20260905063534 72 186 0.0 2.0 0.26 0.81 0.42 93 1009.4
20260905063034 72 186 0.0 2.0 0.26 0.80 0.41 93 1009.6
20260905062536 72 227 0.0 2.0 0.25 0.79 0.40 93 1009.7
20260905062033 72 240 1.0 2.0 0.24 0.78 0.39 93 1010.0
20260905061549 72 311 0.0 4.0 0.23 0.77 0.38 93 1010.0
20260905061029 73 19 0.0 3.0 0.23 0.76 0.37 93 1010.1
20260905060529 73 248 0.0 3.0 0.22 0.75 0.36 92 1010.2
20260905060048 73 282 0.0 3.0 0.22 0.74 0.35 92 1010.2
20260905055528 73 287 0.0 2.0 0.19 0.71 0.32 92 1010.2
20260905055027 73 290 0.0 3.0 0.11 0.63 0.24 92 1010.2
20260905054534 73 244 1.0 3.0 0.05 0.56 0.18 92 1010.2
20260905054026 73 281 0.0 3.0 0.04 0.56 0.17 92 1010.2
20260905053526 73 321 1.0 4.0 0.03 0.55 0.16 92 1010.2
20260905053026 73 215 2.0 4.0 0.02 0.54 0.15 92 1010.2
20260905052525 73 260 2.0 5.0 0.04 0.54 0.15 92 1010.2
20260905052026 73 248 2.0 4.0 0.07 0.54 0.15 92 1010.3
20260905051533 73 198 2.0 7.0 0.10 0.54 0.15 92 1010.2
20260905051022 74 275 1.0 8.0 0.11 0.53 0.14 91 1010.3
20260905050522 74 305 4.0 8.0 0.13 0.53 0.14 92 1010.4
20260905050022 74 267 2.0 7.0 0.13 0.52 0.13 91 1010.5
20260905045522 74 258 3.0 7.0 0.13 0.52 0.13 91 1010.5
20260905045020 74 249 2.0 5.0 0.13 0.52 0.13 90 1010.5
20260905044519 74 254 0.0 5.0 0.13 0.52 0.13 90 1010.5
20260905044018 74 256 2.0 8.0 0.13 0.52 0.13 90 1010.5
20260905043519 75 248 3.0 8.0 0.13 0.52 0.13 90 1010.6
20260905043019 75 262 1.0 10.0 0.13 0.52 0.13 89 1010.5
20260905042515 75 309 3.0 13.0 0.11 0.50 0.11 88 1010.7
20260905042014 76 82 5.0 13.0 0.08 0.47 0.08 87 1010.7
20260905041513 77 346 3.0 9.0 0.04 0.43 0.04 87 1010.7
20260905041012 77 348 1.0 4.0 0.03 0.42 0.03 88 1010.6
20260905040510 78 306 0.0 1.0 0.01 0.40 0.01 88 1010.5
20260905040009 78 240 0.0 0.0 0.00 0.39 0.00 87 1010.3
20260905035509 78 240 0.0 0.0 0.00 0.39 0.39 86 1010.2
20260905035008 78 240 0.0 1.0 0.00 0.39 0.39 86 1010.1
20260905034512 78 240 0.0 1.0 0.00 0.39 0.39 85 1010.2
20260905034009 79 240 0.0 2.0 0.00 0.39 0.39 85 1010.2
20260905033507 79 240 0.0 2.0 0.00 0.39 0.39 84 1010.3
20260905033007 79 240 0.0 2.0 0.00 0.39 0.39 84 1010.4
20260905032506 79 240 0.0 2.0 0.00 0.39 0.39 84 1010.3
20260905032006 79 240 1.0 2.0 0.00 0.39 0.39 84 1010.3
20260905031513 79 228 0.0 2.0 0.00 0.39 0.39 84 1010.4
20260905031009 79 231 0.0 3.0 0.00 0.39 0.39 85 1010.5
20260905030506 78 285 1.0 3.0 0.00 0.39 0.39 85 1010.6
20260905030007 78 242 0.0 3.0 0.00 0.39 0.39 86 1010.5
20260905025506 78 217 1.0 3.0 0.00 0.39 0.39 87 1010.6
20260905025005 78 276 0.0 3.0 0.00 0.39 0.39 88 1010.7
20260905024506 77 242 0.0 2.0 0.00 0.39 0.39 89 1010.6
20260905024005 77 250 0.0 1.0 0.00 0.39 0.39 89 1010.5
20260905023505 77 250 0.0 1.0 0.00 0.39 0.39 90 1010.5
20260905023015 77 250 0.0 1.0 0.00 0.39 0.39 89 1010.4
20260905022505 77 250 0.0 1.0 0.00 0.39 0.39 89 1010.4
20260905022005 77 250 0.0 0.0 0.00 0.39 0.39 89 1010.4
20260905021506 77 250 0.0 1.0 0.00 0.39 0.39 89 1010.4
20260905021006 77 250 0.0 1.0 0.00 0.39 0.39 89 1010.3
20260905020506 77 250 0.0 1.0 0.00 0.39 0.39 88 1010.4
20260905020005 77 250 0.0 0.0 0.00 0.39 0.39 88 1010.4
20260905015505 77 250 0.0 0.0 0.00 0.39 0.39 88 1010.5
20260905015005 77 250 0.0 1.0 0.00 0.39 0.39 87 1010.6
20260905014505 77 250 0.0 1.0 0.00 0.39 0.39 87 1010.5
20260905014003 77 250 0.0 0.0 0.00 0.39 0.39 86 1010.6
20260905013504 77 250 0.0 0.0 0.00 0.39 0.39 86 1010.6
20260905013006 78 250 0.0 1.0 0.00 0.39 0.39 85 1010.6
20260905012503 78 250 0.0 1.0 0.00 0.39 0.39 84 1010.6
20260905012003 78 250 0.0 1.0 0.00 0.39 0.39 84 1010.5
20260905011503 79 250 0.0 1.0 0.00 0.39 0.39 83 1010.4
20260905011007 79 250 0.0 1.0 0.00 0.39 0.39 83 1010.5
20260905010503 79 250 0.0 1.0 0.00 0.39 0.39 83 1010.4
20260905010002 79 250 0.0 1.0 0.00 0.39 0.39 82 1010.4
20260905005504 79 250 0.0 1.0 0.00 0.39 0.39 81 1010.5
20260905005002 79 250 0.0 1.0 0.00 0.39 0.39 80 1010.5
20260905004502 79 250 0.0 2.0 0.00 0.39 0.39 80 1010.5
20260905004001 79 288 0.0 2.0 0.00 0.39 0.39 79 1010.6
20260905003501 80 261 0.0 2.0 0.00 0.39 0.39 79 1010.6
20260905003008 80 286 0.0 2.0 0.00 0.39 0.39 79 1010.4
20260905002500 80 261 0.0 2.0 0.00 0.39 0.39 79 1010.2
20260905002102 80 261 0.0 2.0 0.00 0.39 0.39 78 1010.2
20260905001601 80 263 0.0 3.0 0.00 0.39 0.39 78 1010.1
20260905001100 80 254 0.0 3.0 0.00 0.39 0.39 78 1010.0
20260905000604 80 250 0.0 4.0 0.00 0.39 0.39 78 1010.1
20260905000100 80 294 0.0 3.0 0.00 0.39 0.39 77 1010.1
20260904235601 80 298 1.0 3.0 0.00 0.39 0.39 77 1010.0
20260904235102 80 265 1.0 3.0 0.00 0.39 0.39 77 1009.9
20260904234559 81 227 1.0 2.0 0.00 0.39 0.39 77 1009.9
20260904234059 81 244 0.0 3.0 0.00 0.39 0.39 76 1010.0
20260904233559 81 277 0.0 3.0 0.00 0.39 0.39 76 1009.8
20260904233057 81 261 0.0 3.0 0.00 0.39 0.39 76 1010.0
20260904232557 81 260 1.0 3.0 0.00 0.39 0.39 75 1010.1
20260904232057 81 279 0.0 4.0 0.00 0.39 0.39 75 1010.2
20260904231559 81 247 1.0 4.0 0.00 0.39 0.39 75 1010.3
20260904231056 82 326 1.0 4.0 0.00 0.39 0.39 75 1010.2
20260904230558 82 261 1.0 4.0 0.00 0.39 0.39 74 1010.2
20260904230107 82 297 1.0 5.0 0.00 0.39 0.39 74 1010.2
20260904225554 82 228 1.0 9.0 0.00 0.39 0.39 74 1010.3
20260904225054 82 320 3.0 9.0 0.00 0.39 0.39 74 1010.6
20260904224605 82 260 2.0 7.0 0.00 0.39 0.39 74 1010.7
20260904224057 83 259 2.0 5.0 0.00 0.39 0.39 73 1010.6
20260904223557 83 270 1.0 5.0 0.00 0.39 0.39 72 1010.5
20260904223107 83 295 1.0 5.0 0.00 0.39 0.39 71 1010.5
20260904222555 83 263 1.0 8.0 0.00 0.39 0.39 71 1010.6
20260904222053 83 252 4.0 9.0 0.00 0.39 0.39 71 1010.6
20260904221610 83 278 3.0 11.0 0.00 0.39 0.39 70 1010.7
20260904221052 83 355 2.0 11.0 0.00 0.39 0.39 70 1010.5
20260904220552 84 270 2.0 9.0 0.00 0.39 0.39 69 1010.5
20260904220051 84 282 2.0 8.0 0.00 0.39 0.39 68 1010.4
20260904215556 84 199 3.0 9.0 0.00 0.39 0.39 68 1010.5
20260904215050 84 275 4.0 9.0 0.00 0.39 0.39 68 1010.5
20260904214553 84 295 3.0 8.0 0.00 0.39 0.39 68 1010.6
20260904214050 85 250 3.0 8.0 0.00 0.39 0.39 69 1010.6
20260904213550 85 228 3.0 8.0 0.00 0.39 0.39 67 1010.5
20260904213057 85 211 3.0 8.0 0.00 0.39 0.39 66 1010.6
20260904212550 86 274 4.0 12.0 0.00 0.39 0.39 65 1010.4
20260904212051 86 236 3.0 12.0 0.00 0.39 0.39 65 1010.5
20260904211549 86 264 4.0 11.0 0.00 0.39 0.39 65 1010.4
20260904211049 86 274 5.0 11.0 0.00 0.39 0.39 65 1010.5
20260904210550 86 251 4.0 9.0 0.00 0.39 0.39 67 1010.5
20260904210049 86 261 4.0 11.0 0.00 0.39 0.39 67 1010.3
20260904205548 86 200 3.0 12.0 0.00 0.39 0.39 65 1010.4
20260904205046 86 197 5.0 12.0 0.00 0.39 0.39 64 1010.3
20260904204546 86 267 4.0 12.0 0.00 0.39 0.39 66 1010.5
20260904204046 86 206 4.0 12.0 0.00 0.39 0.39 66 1010.5
20260904203549 86 202 2.0 9.0 0.00 0.39 0.39 66 1010.5
20260904203046 86 288 4.0 11.0 0.00 0.39 0.39 65 1010.5
20260904202546 87 218 6.0 11.0 0.00 0.39 0.39 64 1010.5
20260904202045 87 331 2.0 10.0 0.00 0.39 0.39 63 1010.5
20260904201545 87 321 2.0 10.0 0.00 0.39 0.39 64 1010.5
20260904201045 87 257 4.0 10.0 0.00 0.39 0.39 63 1010.5
20260904200543 87 316 2.0 13.0 0.00 0.39 0.39 63 1010.5
20260904200101 87 250 6.0 13.0 0.00 0.39 0.39 63 1010.7
20260904195543 87 207 3.0 8.0 0.00 0.39 0.39 64 1010.8
20260904195041 86 242 0.0 6.0 0.00 0.39 0.39 67 1010.8
20260904194544 85 275 2.0 9.0 0.00 0.39 0.39 65 1010.8
20260904194039 86 264 1.0 9.0 0.00 0.39 0.39 65 1010.9
20260904193539 86 202 4.0 9.0 0.00 0.39 0.39 64 1010.9
20260904193041 86 275 4.0 9.0 0.00 0.39 0.39 64 1011.1
20260904192537 87 245 3.0 9.0 0.00 0.39 0.39 63 1011.1
20260904192041 87 228 3.0 10.0 0.00 0.39 0.39 63 1011.2
20260904191544 87 291 4.0 10.0 0.00 0.39 0.39 63 1011.2
20260904191037 87 273 4.0 10.0 0.00 0.39 0.39 63 1011.3
20260904190536 87 234 5.0 14.0 0.00 0.39 0.39 62 1011.3
20260904190039 87 283 7.0 14.0 0.00 0.39 0.39 62 1011.2
20260904185535 87 272 6.0 12.0 0.00 0.39 0.39 60 1011.2
20260904185035 87 217 6.0 12.0 0.00 0.39 0.39 61 1011.3
20260904184534 87 197 6.0 12.0 0.00 0.39 0.39 61 1011.3
20260904184035 88 248 5.0 11.0 0.00 0.39 0.39 60 1011.3
20260904183534 88 224 2.0 11.0 0.00 0.39 0.39 58 1011.3
20260904183035 88 294 2.0 12.0 0.00 0.39 0.39 59 1011.4
20260904182535 88 257 3.0 12.0 0.00 0.39 0.39 55 1011.5
20260904182037 88 227 4.0 9.0 0.00 0.39 0.39 56 1011.5
20260904181532 88 272 1.0 13.0 0.00 0.39 0.39 58 1011.7
20260904181033 87 87 4.0 11.0 0.00 0.39 0.39 62 1011.5
20260904180530 87 218 6.0 13.0 0.00 0.39 0.39 61 1011.6
20260904180030 87 220 6.0 13.0 0.00 0.39 0.39 63 1011.4
20260904175529 87 207 3.0 11.0 0.00 0.39 0.39 62 1011.5
20260904175029 87 245 5.0 10.0 0.00 0.39 0.39 63 1011.5
20260904174530 87 234 1.0 7.0 0.00 0.39 0.39 64 1011.5
20260904174027 87 240 2.0 6.0 0.00 0.39 0.39 61 1011.5
20260904173529 86 257 3.0 5.0 0.00 0.39 0.39 61 1011.7
20260904173028 86 285 2.0 9.0 0.00 0.39 0.39 61 1011.6
20260904172528 87 265 3.0 9.0 0.00 0.39 0.39 60 1011.6
20260904172027 87 298 3.0 7.0 0.00 0.39 0.39 59 1011.6
20260904171551 87 47 2.0 9.0 0.00 0.39 0.39 62 1011.7
20260904171026 87 315 1.0 9.0 0.00 0.39 0.39 61 1011.7
20260904170530 88 246 2.0 6.0 0.00 0.39 0.39 61 1011.7
20260904170024 87 355 2.0 8.0 0.00 0.39 0.39 60 1011.7
20260904165528 87 253 1.0 8.0 0.00 0.39 0.39 61 1011.7
20260904165023 87 294 0.0 4.0 0.00 0.39 0.39 61 1011.7
20260904164523 87 57 1.0 4.0 0.00 0.39 0.39 61 1011.7
20260904164022 87 292 2.0 8.0 0.00 0.39 0.39 60 1011.7
20260904163522 86 360 3.0 8.0 0.00 0.39 0.39 61 1011.7
20260904163039 87 302 2.0 5.0 0.00 0.39 0.39 61 1011.7
20260904162521 87 40 2.0 5.0 0.00 0.39 0.39 61 1011.9
20260904162024 87 334 1.0 7.0 0.00 0.39 0.39 62 1011.7
20260904161520 86 279 1.0 6.0 0.00 0.39 0.39 63 1011.7
20260904161019 87 211 1.0 5.0 0.00 0.39 0.39 62 1011.8
20260904160521 87 30 1.0 7.0 0.00 0.39 0.39 63 1011.9
20260904160017 86 82 1.0 7.0 0.00 0.39 0.39 64 1011.9
20260904155517 86 100 2.0 4.0 0.00 0.39 0.39 63 1012.0
20260904155015 86 318 1.0 5.0 0.00 0.39 0.39 65 1012.0
20260904154517 86 5 0.0 5.0 0.00 0.39 0.39 66 1012.0
20260904154013 85 61 1.0 5.0 0.00 0.39 0.39 67 1011.9
20260904153511 84 355 2.0 7.0 0.00 0.39 0.39 66 1012.0
20260904153011 84 267 1.0 9.0 0.00 0.39 0.39 68 1012.0
20260904152511 84 264 2.0 9.0 0.00 0.39 0.39 67 1012.1
20260904152010 84 350 3.0 6.0 0.00 0.39 0.39 66 1012.1
20260904151526 84 355 1.0 5.0 0.00 0.39 0.39 67 1012.1
20260904151010 84 38 1.0 8.0 0.00 0.39 0.39 69 1012.1
20260904150507 83 5 2.0 9.0 0.00 0.39 0.39 69 1012.1
20260904150006 83 15 2.0 9.0 0.00 0.39 0.39 70 1012.1
20260904145507 83 246 2.0 9.0 0.00 0.39 0.39 69 1012.1
20260904145005 83 348 2.0 9.0 0.00 0.39 0.39 70 1012.0
20260904144506 82 52 2.0 9.0 0.00 0.39 0.39 70 1012.1
20260904144004 83 297 0.0 8.0 0.00 0.39 0.39 71 1012.0
20260904143503 82 298 2.0 6.0 0.00 0.39 0.39 70 1012.0
20260904143002 82 331 2.0 7.0 0.00 0.39 0.39 72 1011.9
20260904142502 82 225 1.0 10.0 0.00 0.39 0.39 72 1011.9
20260904142101 82 311 3.0 8.0 0.00 0.39 0.39 72 1011.9
20260904141559 82 325 2.0 6.0 0.00 0.39 0.39 72 1011.9
20260904141058 81 192 2.0 6.0 0.00 0.39 0.39 72 1012.0
20260904140557 81 10 1.0 8.0 0.00 0.39 0.39 73 1012.0
20260904140055 81 286 2.0 8.0 0.00 0.39 0.39 75 1011.9
20260904135555 80 277 2.0 8.0 0.00 0.39 0.39 75 1011.9
20260904135054 80 334 2.0 8.0 0.00 0.39 0.39 75 1011.9
20260904134557 80 58 2.0 11.0 0.00 0.39 0.39 75 1011.9
20260904134052 80 313 2.0 7.0 0.00 0.39 0.39 77 1011.8
20260904133550 80 360 2.0 8.0 0.00 0.39 0.39 77 1011.8
20260904133103 79 301 0.0 8.0 0.00 0.39 0.39 78 1011.8
20260904132550 79 319 1.0 9.0 0.00 0.39 0.39 79 1011.7
20260904132050 79 34 2.0 10.0 0.00 0.39 0.39 80 1011.8
20260904131549 79 341 2.0 10.0 0.00 0.39 0.39 79 1011.9
20260904131052 78 313 1.0 7.0 0.00 0.39 0.39 81 1011.9
20260904130551 78 315 2.0 9.0 0.00 0.39 0.39 81 1011.9
20260904130149 78 344 1.0 9.0 0.00 0.39 0.39 82 1011.9
20260904125548 78 327 3.0 9.0 0.00 0.42 0.39 81 1011.9
20260904125051 77 255 2.0 8.0 0.00 0.42 0.39 83 1012.1
20260904124547 77 288 2.0 5.0 0.00 0.42 0.39 83 1012.0
20260904124047 77 264 2.0 8.0 0.00 0.42 0.39 83 1011.8
20260904123547 77 339 1.0 10.0 0.00 0.42 0.39 84 1011.7
20260904123051 76 59 3.0 10.0 0.00 0.42 0.39 84 1011.9
20260904122547 76 261 3.0 6.0 0.00 0.42 0.39 86 1012.0
20260904122047 76 300 2.0 8.0 0.00 0.42 0.39 87 1012.0
20260904121547 75 31 3.0 10.0 0.00 0.42 0.39 88 1011.8
20260904121046 75 244 3.0 10.0 0.00 0.42 0.39 89 1011.9
20260904120546 74 239 2.0 10.0 0.00 0.42 0.39 89 1011.9
20260904120054 74 313 2.0 8.0 0.00 0.42 0.39 89 1012.0
20260904115546 74 294 2.0 8.0 0.00 0.44 0.39 89 1012.0
20260904115045 74 313 3.0 11.0 0.00 0.44 0.39 90 1011.9
20260904114549 74 300 2.0 8.0 0.00 0.44 0.39 90 1012.0
20260904114045 74 293 3.0 13.0 0.00 0.44 0.39 90 1012.0
20260904113545 74 217 3.0 13.0 0.00 0.44 0.39 91 1011.8